Time,TemperatureF,DewpointF,PressureIn,WindDirection,WindDirectionDegrees,WindSpeedMPH,WindSpeedGustMPH,Humidity,HourlyPrecipIn,Conditions,Clouds,dailyrainin,SoftwareType,DateUTC
2013-08-01 00:01:00,66.8,66.5,29.93,ESE,117,0.0,0.0,99,0.04,,SKC,0.16,VWS V14.01,2013-08-01 04:01:00,
2013-08-01 00:02:00,66.8,66.5,29.93,ESE,117,0.0,0.0,99,0.03,,SKC,0.00,VWS V14.01,2013-08-01 04:02:00,
2013-08-01 00:07:00,66.8,66.5,29.93,ESE,117,0.0,0.0,99,0.01,,SKC,0.00,VWS V14.01,2013-08-01 04:07:00,
2013-08-01 00:12:00,66.6,66.3,29.93,ESE,117,0.0,0.0,99,0.00,,SKC,0.00,VWS V14.01,2013-08-01 04:12:00,
2013-08-01 00:17:00,66.6,66.3,29.93,ESE,117,0.0,0.0,99,0.00,,SKC,0.00,VWS V14.01,2013-08-01 04:17:00,
2013-08-01 00:22:00,66.6,66.3,29.93,ESE,117,0.0,0.0,99,0.00,,SKC,0.00,VWS V14.01,2013-08-01 04:22:00,
2013-08-01 00:27:00,66.4,66.1,29.93,ESE,117,0.0,0.0,99,0.00,,SKC,0.00,VWS V14.01,2013-08-01 04:27:00,
2013-08-01 00:32:00,66.4,66.1,29.93,ESE,117,0.0,0.0,99,0.00,,SKC,0.00,VWS V14.01,2013-08-01 04:32:00,
2013-08-01 00:37:00,66.4,66.1,29.93,ESE,117,0.0,0.0,99,0.00,,SKC,0.00,VWS V14.01,2013-08-01 04:37:00,
2013-08-01 00:42:00,66.4,66.1,29.93,ESE,117,0.0,0.0,99,0.00,,SKC,0.00,VWS V14.01,2013-08-01 04:42:00,
2013-08-01 00:47:00,66.4,66.1,29.93,ESE,117,0.0,0.0,99,0.00,,SKC,0.00,VWS V14.01,2013-08-01 04:47:00,
2013-08-01 00:52:00,66.4,66.1,29.93,ESE,117,0.0,0.0,99,0.00,,SKC,0.00,VWS V14.01,2013-08-01 04:52:00,
2013-08-01 00:57:00,66.4,66.1,29.93,ESE,117,0.0,0.0,99,0.00,,SKC,0.00,VWS V14.01,2013-08-01 04:57:00,
2013-08-01 01:02:00,66.4,66.1,29.93,ESE,117,0.0,0.0,99,0.00,,SKC,0.00,VWS V14.01,2013-08-01 05:02:00,
2013-08-01 01:07:00,66.4,66.1,29.93,ESE,117,0.0,0.0,99,0.00,,SKC,0.00,VWS V14.01,2013-08-01 05:07:00,
2013-08-01 01:12:00,66.4,66.4,29.93,ESE,117,0.0,0.0,100,0.00,,SKC,0.00,VWS V14.01,2013-08-01 05:12:00,
2013-08-01 01:17:00,66.4,66.4,29.93,ESE,117,0.0,0.0,100,0.00,,SKC,0.00,VWS V14.01,2013-08-01 05:17:00,
2013-08-01 01:22:00,66.4,66.4,29.93,ESE,117,0.0,0.0,100,0.00,,SKC,0.00,VWS V14.01,2013-08-01 05:22:00,
2013-08-01 01:27:00,66.3,66.3,29.93,ESE,117,0.0,0.0,100,0.00,,SKC,0.00,VWS V14.01,2013-08-01 05:27:00,
2013-08-01 01:32:00,66.3,66.3,29.92,ESE,117,0.0,0.0,100,0.02,,SKC,0.02,VWS V14.01,2013-08-01 05:32:00,
2013-08-01 01:37:00,66.3,66.3,29.92,ESE,117,0.0,0.0,100,0.04,,SKC,0.04,VWS V14.01,2013-08-01 05:37:00,
2013-08-01 01:42:00,66.3,66.3,29.92,ESE,117,0.0,0.0,100,0.05,,SKC,0.05,VWS V14.01,2013-08-01 05:42:00,
2013-08-01 01:47:00,66.1,66.1,29.92,ESE,117,0.0,0.0,100,0.05,,SKC,0.05,VWS V14.01,2013-08-01 05:47:00,
2013-08-01 01:52:00,66.3,66.3,29.92,ESE,117,0.0,0.0,100,0.06,,SKC,0.06,VWS V14.01,2013-08-01 05:52:00,
2013-08-01 01:57:00,66.3,66.3,29.92,ESE,117,0.0,0.0,100,0.07,,SKC,0.07,VWS V14.01,2013-08-01 05:57:00,
2013-08-01 02:02:00,66.3,66.3,29.91,ESE,117,0.0,0.0,100,0.07,,SKC,0.07,VWS V14.01,2013-08-01 06:02:00,
2013-08-01 02:07:00,66.4,66.4,29.91,ESE,117,0.0,0.0,100,0.07,,SKC,0.07,VWS V14.01,2013-08-01 06:07:00,
2013-08-01 02:12:00,66.4,66.4,29.91,ESE,117,0.0,0.0,100,0.07,,SKC,0.07,VWS V14.01,2013-08-01 06:12:00,
2013-08-01 02:17:00,66.6,66.6,29.91,ESE,117,0.0,0.0,100,0.07,,SKC,0.07,VWS V14.01,2013-08-01 06:17:00,
2013-08-01 02:22:00,66.4,66.4,29.91,ESE,117,0.0,0.0,100,0.07,,SKC,0.07,VWS V14.01,2013-08-01 06:22:00,
2013-08-01 02:27:00,66.4,66.4,29.91,ESE,117,0.0,0.0,100,0.07,,SKC,0.07,VWS V14.01,2013-08-01 06:27:00,
2013-08-01 02:32:00,66.3,66.3,29.90,ESE,117,0.0,0.0,100,0.06,,SKC,0.07,VWS V14.01,2013-08-01 06:32:00,
2013-08-01 02:37:00,66.3,66.3,29.90,ESE,117,0.0,0.0,100,0.03,,SKC,0.07,VWS V14.01,2013-08-01 06:37:00,
2013-08-01 02:42:00,66.3,66.3,29.90,ESE,117,0.0,0.0,100,0.02,,SKC,0.07,VWS V14.01,2013-08-01 06:42:00,
2013-08-01 02:47:00,66.3,66.3,29.88,ESE,117,0.0,0.0,100,0.02,,SKC,0.07,VWS V14.01,2013-08-01 06:47:00,
2013-08-01 02:52:00,66.4,66.4,29.88,ESE,117,0.0,0.0,100,0.01,,SKC,0.07,VWS V14.01,2013-08-01 06:52:00,
2013-08-01 02:57:00,66.3,66.3,29.88,ESE,117,0.0,0.0,100,0.00,,SKC,0.07,VWS V14.01,2013-08-01 06:57:00,
2013-08-01 03:02:00,66.3,66.3,29.88,ESE,117,0.0,0.0,100,0.00,,SKC,0.07,VWS V14.01,2013-08-01 07:02:00,
2013-08-01 03:07:00,66.3,66.3,29.88,ESE,117,0.0,0.0,100,0.00,,SKC,0.07,VWS V14.01,2013-08-01 07:07:00,
2013-08-01 03:12:00,66.4,66.4,29.88,ESE,117,0.0,0.0,100,0.00,,SKC,0.07,VWS V14.01,2013-08-01 07:12:00,
2013-08-01 03:17:00,66.4,66.4,29.88,ESE,117,0.0,0.0,100,0.00,,SKC,0.07,VWS V14.01,2013-08-01 07:17:00,
2013-08-01 03:22:00,66.3,66.3,29.88,ESE,117,0.0,0.0,100,0.00,,SKC,0.07,VWS V14.01,2013-08-01 07:22:00,
2013-08-01 03:27:00,66.3,66.3,29.88,ESE,117,0.0,0.0,100,0.00,,SKC,0.07,VWS V14.01,2013-08-01 07:27:00,
2013-08-01 03:32:00,66.1,66.1,29.88,ESE,117,0.0,0.0,100,0.00,,SKC,0.07,VWS V14.01,2013-08-01 07:32:00,
2013-08-01 03:37:00,66.1,66.1,29.88,ESE,117,0.0,0.0,100,0.00,,SKC,0.07,VWS V14.01,2013-08-01 07:37:00,
2013-08-01 03:42:00,66.1,66.1,29.88,ESE,117,0.0,0.0,100,0.00,,SKC,0.07,VWS V14.01,2013-08-01 07:42:00,
2013-08-01 03:47:00,66.3,66.3,29.88,ESE,117,0.0,0.0,100,0.00,,SKC,0.07,VWS V14.01,2013-08-01 07:47:00,
2013-08-01 03:53:00,66.1,66.1,29.88,ESE,117,0.0,0.0,100,0.00,,SKC,0.07,VWS V14.01,2013-08-01 07:53:00,
2013-08-01 03:58:00,66.1,66.1,29.88,ESE,117,0.0,0.0,100,0.00,,SKC,0.07,VWS V14.01,2013-08-01 07:58:00,
2013-08-01 04:03:00,66.1,66.1,29.88,ESE,117,0.0,0.0,100,0.00,,SKC,0.07,VWS V14.01,2013-08-01 08:03:00,
2013-08-01 04:08:00,66.1,66.1,29.88,ESE,117,0.0,0.0,100,0.00,,SKC,0.07,VWS V14.01,2013-08-01 08:08:00,
2013-08-01 04:13:00,66.1,66.1,29.88,ESE,117,0.0,0.0,100,0.00,,SKC,0.07,VWS V14.01,2013-08-01 08:13:00,
2013-08-01 04:18:00,66.1,66.1,29.88,ESE,117,0.0,0.0,100,0.00,,SKC,0.07,VWS V14.01,2013-08-01 08:18:00,
2013-08-01 04:23:00,66.0,66.0,29.88,ESE,117,0.0,0.0,100,0.00,,SKC,0.07,VWS V14.01,2013-08-01 08:23:00,
2013-08-01 04:28:00,66.0,66.0,29.88,ESE,117,0.0,0.0,100,0.00,,SKC,0.07,VWS V14.01,2013-08-01 08:28:00,
2013-08-01 04:33:00,66.0,66.0,29.88,ESE,117,0.0,0.0,100,0.00,,SKC,0.07,VWS V14.01,2013-08-01 08:33:00,
2013-08-01 04:38:00,66.0,66.0,29.88,ESE,117,0.0,0.0,100,0.00,,SKC,0.07,VWS V14.01,2013-08-01 08:38:00,
2013-08-01 04:43:00,66.1,66.1,29.88,ESE,117,0.0,0.0,100,0.00,,SKC,0.07,VWS V14.01,2013-08-01 08:43:00,
2013-08-01 04:48:00,66.1,66.1,29.87,ESE,117,0.0,0.0,100,0.00,,SKC,0.07,VWS V14.01,2013-08-01 08:48:00,
2013-08-01 04:53:00,66.3,66.3,29.87,ESE,117,0.0,0.0,100,0.00,,SKC,0.07,VWS V14.01,2013-08-01 08:53:00,
2013-08-01 04:58:00,66.3,66.3,29.87,ESE,117,0.0,0.0,100,0.00,,SKC,0.07,VWS V14.01,2013-08-01 08:58:00,
2013-08-01 05:04:00,66.4,66.4,29.86,ESE,117,1.0,1.0,100,0.00,,SKC,0.07,VWS V14.01,2013-08-01 09:04:00,
2013-08-01 05:09:00,66.4,66.4,29.86,ESE,117,0.0,0.0,100,0.00,,SKC,0.07,VWS V14.01,2013-08-01 09:09:00,
2013-08-01 05:14:00,66.4,66.4,29.86,ESE,117,0.0,0.0,100,0.00,,SKC,0.07,VWS V14.01,2013-08-01 09:14:00,
2013-08-01 05:19:00,66.6,66.6,29.86,ESE,117,0.0,0.0,100,0.00,,SKC,0.07,VWS V14.01,2013-08-01 09:19:00,
2013-08-01 05:24:00,66.4,66.4,29.86,ESE,117,0.0,0.0,100,0.00,,SKC,0.07,VWS V14.01,2013-08-01 09:24:00,
2013-08-01 05:29:00,66.3,66.3,29.86,ESE,117,0.0,0.0,100,0.00,,SKC,0.07,VWS V14.01,2013-08-01 09:29:00,
2013-08-01 05:34:00,66.3,66.3,29.86,ESE,117,0.0,0.0,100,0.00,,SKC,0.07,VWS V14.01,2013-08-01 09:34:00,
2013-08-01 05:39:00,66.3,66.3,29.86,ESE,117,0.0,0.0,100,0.00,,SKC,0.07,VWS V14.01,2013-08-01 09:39:00,
2013-08-01 05:44:00,66.1,66.1,29.86,ESE,117,0.0,2.0,100,0.00,,SKC,0.07,VWS V14.01,2013-08-01 09:44:00,
2013-08-01 05:49:00,66.1,66.1,29.86,ESE,117,0.0,0.0,100,0.00,,SKC,0.07,VWS V14.01,2013-08-01 09:49:00,
2013-08-01 05:54:00,66.4,66.4,29.86,ESE,117,0.0,0.0,100,0.00,,SKC,0.07,VWS V14.01,2013-08-01 09:54:00,
2013-08-01 05:59:00,66.4,66.4,29.86,ESE,117,0.0,0.0,100,0.00,,SKC,0.07,VWS V14.01,2013-08-01 09:59:00,
2013-08-01 06:05:00,66.6,66.6,29.86,ESE,117,0.0,0.0,100,0.00,,SKC,0.07,VWS V14.01,2013-08-01 10:05:00,
2013-08-01 06:10:00,66.6,66.6,29.86,ESE,117,0.0,0.0,100,0.00,,SKC,0.07,VWS V14.01,2013-08-01 10:10:00,
2013-08-01 06:15:00,66.6,66.6,29.86,ESE,117,0.0,0.0,100,0.00,,SKC,0.07,VWS V14.01,2013-08-01 10:15:00,
2013-08-01 06:20:00,66.8,66.8,29.86,ESE,117,0.0,0.0,100,0.00,,SKC,0.07,VWS V14.01,2013-08-01 10:20:00,
2013-08-01 06:25:00,66.8,66.8,29.86,ESE,117,0.0,0.0,100,0.00,,SKC,0.07,VWS V14.01,2013-08-01 10:25:00,
2013-08-01 06:30:00,66.6,66.6,29.86,ESE,117,0.0,0.0,100,0.00,,SKC,0.07,VWS V14.01,2013-08-01 10:30:00,
2013-08-01 06:35:00,66.4,66.4,29.86,ESE,117,0.0,0.0,100,0.00,,SKC,0.07,VWS V14.01,2013-08-01 10:35:00,
2013-08-01 06:41:00,66.4,66.4,29.86,ESE,117,0.0,0.0,100,0.00,,SKC,0.07,VWS V14.01,2013-08-01 10:41:00,
2013-08-01 06:46:00,66.3,66.3,29.87,ESE,117,0.0,0.0,100,0.00,,SKC,0.07,VWS V14.01,2013-08-01 10:46:00,
2013-08-01 06:51:00,66.1,66.1,29.87,ESE,117,0.0,0.0,100,0.00,,SKC,0.07,VWS V14.01,2013-08-01 10:51:00,
2013-08-01 06:57:00,66.1,66.1,29.87,ESE,117,0.0,0.0,100,0.00,,SKC,0.07,VWS V14.01,2013-08-01 10:57:00,
2013-08-01 07:02:00,66.1,66.1,29.87,ESE,117,0.0,0.0,100,0.00,,SKC,0.07,VWS V14.01,2013-08-01 11:02:00,
2013-08-01 07:08:00,66.1,66.1,29.87,ESE,117,0.0,0.0,100,0.00,,SKC,0.07,VWS V14.01,2013-08-01 11:08:00,
2013-08-01 07:13:00,66.3,66.3,29.87,ESE,117,0.0,1.0,100,0.00,,SKC,0.07,VWS V14.01,2013-08-01 11:13:00,
2013-08-01 07:18:00,66.4,66.4,29.88,ESE,117,0.0,0.0,100,0.00,,SKC,0.07,VWS V14.01,2013-08-01 11:18:00,
2013-08-01 07:23:00,66.9,66.9,29.88,ESE,117,1.0,1.0,100,0.00,,SKC,0.07,VWS V14.01,2013-08-01 11:23:00,
2013-08-01 07:28:00,67.1,67.1,29.88,ESE,117,0.0,0.0,100,0.00,,SKC,0.07,VWS V14.01,2013-08-01 11:28:00,
2013-08-01 07:33:00,67.4,67.4,29.87,ESE,117,0.0,0.0,100,0.00,,SKC,0.07,VWS V14.01,2013-08-01 11:33:00,
2013-08-01 07:39:00,68.1,68.1,29.87,ESE,117,0.0,0.0,100,0.00,,SKC,0.07,VWS V14.01,2013-08-01 11:39:00,
2013-08-01 07:44:00,68.8,68.8,29.87,ESE,117,0.0,0.0,100,0.00,,SKC,0.07,VWS V14.01,2013-08-01 11:44:00,
2013-08-01 07:49:00,69.3,69.3,29.87,ESE,117,2.0,2.0,100,0.00,,SKC,0.07,VWS V14.01,2013-08-01 11:49:00,
2013-08-01 07:54:00,69.8,69.8,29.87,ESE,117,0.0,0.0,100,0.00,,SKC,0.07,VWS V14.01,2013-08-01 11:54:00,
2013-08-01 07:59:00,70.3,70.3,29.87,ESE,117,0.0,0.0,100,0.00,,SKC,0.07,VWS V14.01,2013-08-01 11:59:00,
2013-08-01 08:04:00,70.3,70.3,29.87,ESE,117,0.0,0.0,100,0.00,,SKC,0.07,VWS V14.01,2013-08-01 12:04:00,
2013-08-01 08:09:00,70.8,70.8,29.87,ESE,117,0.0,0.0,100,0.00,,SKC,0.07,VWS V14.01,2013-08-01 12:09:00,
2013-08-01 08:14:00,71.3,71.0,29.87,ESE,117,0.0,0.0,99,0.00,,SKC,0.07,VWS V14.01,2013-08-01 12:14:00,
2013-08-01 08:19:00,72.1,71.8,29.86,ESE,117,0.0,0.0,99,0.00,,SKC,0.07,VWS V14.01,2013-08-01 12:19:00,
2013-08-01 08:24:00,72.5,71.3,29.86,ESE,117,0.0,0.0,96,0.00,,SKC,0.07,VWS V14.01,2013-08-01 12:24:00,
2013-08-01 08:29:00,73.2,71.7,29.86,ESE,117,0.0,0.0,95,0.00,,SKC,0.07,VWS V14.01,2013-08-01 12:29:00,
2013-08-01 08:34:00,73.7,71.9,29.86,ESE,117,0.0,0.0,94,0.00,,SKC,0.07,VWS V14.01,2013-08-01 12:34:00,
2013-08-01 08:39:00,73.5,70.7,29.86,ESE,117,0.0,0.0,91,0.00,,SKC,0.07,VWS V14.01,2013-08-01 12:39:00,
2013-08-01 08:44:00,73.7,70.9,29.86,ESE,117,0.0,0.0,91,0.00,,SKC,0.07,VWS V14.01,2013-08-01 12:44:00,
2013-08-01 08:49:00,74.6,71.2,29.86,ESE,117,0.0,0.0,89,0.00,,SKC,0.07,VWS V14.01,2013-08-01 12:49:00,
2013-08-01 08:54:00,75.4,71.3,29.86,ESE,117,0.0,0.0,87,0.00,,SKC,0.07,VWS V14.01,2013-08-01 12:54:00,
2013-08-01 08:59:00,75.4,70.9,29.86,ESE,117,0.0,0.0,86,0.00,,SKC,0.07,VWS V14.01,2013-08-01 12:59:00,
2013-08-01 09:04:00,75.6,70.8,29.86,ESE,117,0.0,0.0,85,0.00,,SKC,0.07,VWS V14.01,2013-08-01 13:04:00,
2013-08-01 09:10:00,75.8,71.0,29.86,ESE,117,0.0,0.0,85,0.00,,SKC,0.07,VWS V14.01,2013-08-01 13:10:00,
2013-08-01 09:15:00,75.8,69.6,29.86,ESE,117,0.0,0.0,81,0.00,,SKC,0.07,VWS V14.01,2013-08-01 13:15:00,
2013-08-01 09:20:00,76.3,67.0,29.86,SE,136,0.0,4.0,73,0.00,,SKC,0.07,VWS V14.01,2013-08-01 13:20:00,
2013-08-01 09:25:00,76.5,68.0,29.86,WSW,240,0.0,9.0,75,0.00,,SKC,0.07,VWS V14.01,2013-08-01 13:25:00,
2013-08-01 09:31:00,76.5,68.8,29.85,WSW,240,0.0,0.0,77,0.00,,SKC,0.07,VWS V14.01,2013-08-01 13:31:00,
2013-08-01 09:36:00,76.5,68.4,29.85,WSW,240,0.0,3.0,76,0.00,,SKC,0.07,VWS V14.01,2013-08-01 13:36:00,
2013-08-01 09:41:00,76.7,70.8,29.85,WSW,240,0.0,0.0,82,0.00,,SKC,0.07,VWS V14.01,2013-08-01 13:41:00,
2013-08-01 09:46:00,77.0,71.1,29.85,WSW,240,0.0,0.0,82,0.00,,SKC,0.07,VWS V14.01,2013-08-01 13:46:00,
2013-08-01 09:51:00,77.0,70.7,29.85,WSW,252,0.0,0.0,81,0.00,,SKC,0.07,VWS V14.01,2013-08-01 13:51:00,
2013-08-01 09:56:00,77.2,67.1,29.85,WSW,252,0.0,0.0,71,0.00,,SKC,0.07,VWS V14.01,2013-08-01 13:56:00,
2013-08-01 10:02:00,76.8,67.9,29.86,West,266,3.0,4.0,74,0.00,,SKC,0.07,VWS V14.01,2013-08-01 14:02:00,
2013-08-01 10:07:00,76.8,68.7,29.86,WNW,303,1.0,1.0,76,0.00,,SKC,0.07,VWS V14.01,2013-08-01 14:07:00,
2013-08-01 10:12:00,77.2,67.1,29.86,NW,311,0.0,0.0,71,0.00,,SKC,0.07,VWS V14.01,2013-08-01 14:12:00,
2013-08-01 10:17:00,78.1,66.7,29.86,NNW,328,2.0,6.0,68,0.00,,SKC,0.07,VWS V14.01,2013-08-01 14:17:00,
2013-08-01 10:22:00,78.5,67.5,29.86,NNW,330,0.0,3.0,69,0.00,,SKC,0.07,VWS V14.01,2013-08-01 14:22:00,
2013-08-01 10:27:00,79.2,68.6,29.86,NW,325,0.0,2.0,70,0.00,,SKC,0.07,VWS V14.01,2013-08-01 14:27:00,
2013-08-01 10:32:00,79.8,69.2,29.85,NW,321,0.0,1.0,70,0.00,,SKC,0.07,VWS V14.01,2013-08-01 14:32:00,
2013-08-01 10:37:00,79.8,67.4,29.85,NW,315,0.0,1.0,66,0.00,,SKC,0.07,VWS V14.01,2013-08-01 14:37:00,
2013-08-01 10:42:00,79.0,64.9,29.85,NW,322,2.0,11.0,62,0.00,,SKC,0.07,VWS V14.01,2013-08-01 14:42:00,
2013-08-01 10:48:00,79.2,66.0,29.86,NW,323,4.0,7.0,64,0.00,,SKC,0.07,VWS V14.01,2013-08-01 14:48:00,
2013-08-01 10:53:00,79.4,66.6,29.86,NW,312,1.0,6.0,65,0.00,,SKC,0.07,VWS V14.01,2013-08-01 14:53:00,
2013-08-01 10:58:00,79.0,65.8,29.86,West,278,0.0,9.0,64,0.00,,SKC,0.07,VWS V14.01,2013-08-01 14:58:00,
2013-08-01 11:03:00,78.8,66.1,29.86,West,279,0.0,5.0,65,0.00,,SKC,0.07,VWS V14.01,2013-08-01 15:03:00,
2013-08-01 11:08:00,78.6,65.4,29.86,WNW,289,0.0,5.0,64,0.00,,SKC,0.07,VWS V14.01,2013-08-01 15:08:00,
2013-08-01 11:13:00,78.6,65.9,29.86,NW,307,0.0,6.0,65,0.00,,SKC,0.07,VWS V14.01,2013-08-01 15:13:00,
2013-08-01 11:18:00,78.5,65.3,29.86,NW,306,0.0,4.0,64,0.00,,SKC,0.07,VWS V14.01,2013-08-01 15:18:00,
2013-08-01 11:23:00,78.5,66.2,29.86,NW,306,1.0,1.0,66,0.00,,SKC,0.07,VWS V14.01,2013-08-01 15:23:00,
2013-08-01 11:28:00,78.5,65.8,29.86,NW,306,0.0,3.0,65,0.00,,SKC,0.07,VWS V14.01,2013-08-01 15:28:00,
2013-08-01 11:34:00,78.3,65.6,29.87,NW,306,0.0,0.0,65,0.00,,SKC,0.07,VWS V14.01,2013-08-01 15:34:00,
2013-08-01 11:39:00,78.3,66.0,29.87,NW,306,0.0,0.0,66,0.00,,SKC,0.07,VWS V14.01,2013-08-01 15:39:00,
2013-08-01 11:44:00,78.1,65.4,29.87,NW,306,0.0,0.0,65,0.00,,SKC,0.07,VWS V14.01,2013-08-01 15:44:00,
2013-08-01 11:49:00,78.3,67.7,29.87,NW,306,0.0,0.0,70,0.00,,SKC,0.07,VWS V14.01,2013-08-01 15:49:00,
2013-08-01 11:54:00,78.3,68.9,29.87,NW,306,0.0,0.0,73,0.00,,SKC,0.07,VWS V14.01,2013-08-01 15:54:00,
2013-08-01 11:59:00,77.9,69.3,29.87,NW,306,0.0,0.0,75,0.00,,SKC,0.07,VWS V14.01,2013-08-01 15:59:00,
2013-08-01 12:04:00,77.4,70.0,29.87,NW,306,0.0,0.0,78,0.00,,SKC,0.07,VWS V14.01,2013-08-01 16:04:00,
2013-08-01 12:09:00,77.0,70.4,29.87,NW,306,0.0,0.0,80,0.00,,SKC,0.07,VWS V14.01,2013-08-01 16:09:00,
2013-08-01 12:14:00,76.8,68.7,29.87,NW,306,0.0,0.0,76,0.00,,SKC,0.07,VWS V14.01,2013-08-01 16:14:00,
2013-08-01 12:19:00,77.4,68.9,29.87,NW,306,0.0,0.0,75,0.00,,SKC,0.07,VWS V14.01,2013-08-01 16:19:00,
2013-08-01 12:25:00,78.1,66.7,29.87,NW,306,0.0,1.0,68,0.00,,SKC,0.07,VWS V14.01,2013-08-01 16:25:00,
2013-08-01 12:30:00,78.6,68.4,29.87,NW,306,0.0,0.0,71,0.00,,SKC,0.07,VWS V14.01,2013-08-01 16:30:00,
2013-08-01 12:35:00,78.6,67.2,29.87,NW,306,0.0,0.0,68,0.00,,SKC,0.07,VWS V14.01,2013-08-01 16:35:00,
2013-08-01 12:40:00,78.6,69.2,29.87,NW,306,0.0,1.0,73,0.00,,SKC,0.07,VWS V14.01,2013-08-01 16:40:00,
2013-08-01 12:45:00,78.6,70.4,29.86,WNW,302,0.0,3.0,76,0.00,,SKC,0.07,VWS V14.01,2013-08-01 16:45:00,
2013-08-01 12:50:00,78.8,70.2,29.86,WNW,301,1.0,2.0,75,0.00,,SKC,0.07,VWS V14.01,2013-08-01 16:50:00,
2013-08-01 12:56:00,79.4,69.2,29.86,WNW,301,0.0,1.0,71,0.00,,SKC,0.07,VWS V14.01,2013-08-01 16:56:00,
2013-08-01 13:01:00,80.1,70.3,29.85,WNW,301,0.0,0.0,72,0.00,,SKC,0.07,VWS V14.01,2013-08-01 17:01:00,
2013-08-01 13:06:00,80.1,69.4,29.85,WNW,301,0.0,2.0,70,0.00,,SKC,0.07,VWS V14.01,2013-08-01 17:06:00,
2013-08-01 13:12:00,80.5,69.4,29.85,WNW,301,3.0,3.0,69,0.00,,SKC,0.07,VWS V14.01,2013-08-01 17:12:00,
2013-08-01 13:17:00,79.8,70.8,29.84,WNW,301,0.0,0.0,74,0.00,,SKC,0.07,VWS V14.01,2013-08-01 17:17:00,
2013-08-01 13:22:00,79.6,69.0,29.84,WNW,301,0.0,0.0,70,0.00,,SKC,0.07,VWS V14.01,2013-08-01 17:22:00,
2013-08-01 13:27:00,79.0,68.0,29.84,WNW,301,0.0,1.0,69,0.00,,SKC,0.07,VWS V14.01,2013-08-01 17:27:00,
2013-08-01 13:32:00,78.8,69.4,29.84,WNW,301,0.0,0.0,73,0.00,,SKC,0.07,VWS V14.01,2013-08-01 17:32:00,
2013-08-01 13:37:00,79.0,70.8,29.84,WNW,301,0.0,0.0,76,0.00,,SKC,0.07,VWS V14.01,2013-08-01 17:37:00,
2013-08-01 13:44:00,79.8,70.8,29.84,WNW,301,0.0,3.0,74,0.00,,SKC,0.07,VWS V14.01,2013-08-01 17:44:00,
2013-08-01 13:49:00,79.6,69.0,29.83,WNW,301,0.0,0.0,70,0.00,,SKC,0.07,VWS V14.01,2013-08-01 17:49:00,
2013-08-01 13:54:00,80.3,69.2,29.83,WNW,301,0.0,0.0,69,0.00,,SKC,0.07,VWS V14.01,2013-08-01 17:54:00,
2013-08-01 13:59:00,80.3,70.1,29.83,WNW,301,1.0,1.0,71,0.00,,SKC,0.07,VWS V14.01,2013-08-01 17:59:00,
2013-08-01 14:04:00,79.9,69.7,29.84,WNW,301,2.0,3.0,71,0.00,,SKC,0.07,VWS V14.01,2013-08-01 18:04:00,
2013-08-01 14:09:00,80.3,69.2,29.84,WNW,301,0.0,3.0,69,0.00,,SKC,0.07,VWS V14.01,2013-08-01 18:09:00,
2013-08-01 14:14:00,80.7,64.1,29.84,NW,306,0.0,5.0,57,0.00,,SKC,0.07,VWS V14.01,2013-08-01 18:14:00,
2013-08-01 14:19:00,80.7,64.1,29.84,NW,307,0.0,3.0,57,0.00,,SKC,0.07,VWS V14.01,2013-08-01 18:19:00,
2013-08-01 14:25:00,80.7,65.1,29.84,NW,307,1.0,3.0,59,0.00,,SKC,0.07,VWS V14.01,2013-08-01 18:25:00,
2013-08-01 14:30:00,81.1,62.9,29.84,WNW,302,0.0,6.0,54,0.00,,SKC,0.07,VWS V14.01,2013-08-01 18:30:00,
2013-08-01 14:35:00,81.1,66.9,29.84,WNW,283,7.0,11.0,62,0.00,,SKC,0.07,VWS V14.01,2013-08-01 18:35:00,
2013-08-01 14:41:00,80.7,63.0,29.84,WNW,290,3.0,6.0,55,0.00,,SKC,0.07,VWS V14.01,2013-08-01 18:41:00,
2013-08-01 14:46:00,80.9,63.8,29.83,NW,306,1.0,6.0,56,0.00,,SKC,0.07,VWS V14.01,2013-08-01 18:46:00,
2013-08-01 14:51:00,80.7,65.1,29.83,West,276,5.0,11.0,59,0.00,,SKC,0.07,VWS V14.01,2013-08-01 18:51:00,
2013-08-01 14:56:00,80.9,63.2,29.83,WNW,295,0.0,9.0,55,0.00,,SKC,0.07,VWS V14.01,2013-08-01 18:56:00,
2013-08-01 15:01:00,81.8,62.5,29.82,WNW,298,3.0,3.0,52,0.00,,SKC,0.07,VWS V14.01,2013-08-01 19:01:00,
2013-08-01 15:06:00,82.6,65.8,29.82,NW,321,5.0,11.0,57,0.00,,SKC,0.07,VWS V14.01,2013-08-01 19:06:00,
2013-08-01 15:11:00,82.2,61.2,29.82,WNW,287,3.0,4.0,49,0.00,,SKC,0.07,VWS V14.01,2013-08-01 19:11:00,
2013-08-01 15:17:00,81.6,62.3,29.83,WNW,291,4.0,5.0,52,0.00,,SKC,0.07,VWS V14.01,2013-08-01 19:17:00,
2013-08-01 15:22:00,81.8,64.1,29.83,WNW,295,0.0,6.0,55,0.00,,SKC,0.07,VWS V14.01,2013-08-01 19:22:00,
2013-08-01 15:27:00,82.2,62.3,29.83,WNW,294,0.0,5.0,51,0.00,,SKC,0.07,VWS V14.01,2013-08-01 19:27:00,
2013-08-01 15:32:00,82.8,61.1,29.82,WNW,295,3.0,5.0,48,0.00,,SKC,0.07,VWS V14.01,2013-08-01 19:32:00,
2013-08-01 15:37:00,83.4,62.3,29.82,WNW,295,0.0,1.0,49,0.00,,SKC,0.07,VWS V14.01,2013-08-01 19:37:00,
2013-08-01 15:42:00,83.8,62.6,29.82,WNW,290,1.0,3.0,49,0.00,,SKC,0.07,VWS V14.01,2013-08-01 19:42:00,
2013-08-01 15:47:00,83.4,61.1,29.81,WNW,294,0.0,4.0,47,0.00,,SKC,0.07,VWS V14.01,2013-08-01 19:47:00,
2013-08-01 15:53:00,83.6,61.3,29.81,WNW,294,1.0,2.0,47,0.00,,SKC,0.07,VWS V14.01,2013-08-01 19:53:00,
2013-08-01 15:58:00,84.0,62.2,29.81,WNW,294,0.0,1.0,48,0.00,,SKC,0.07,VWS V14.01,2013-08-01 19:58:00,
2013-08-01 16:03:00,84.3,63.7,29.82,WNW,294,0.0,3.0,50,0.00,,SKC,0.07,VWS V14.01,2013-08-01 20:03:00,
2013-08-01 16:09:00,84.0,62.8,29.82,NNW,347,2.0,10.0,49,0.00,,SKC,0.07,VWS V14.01,2013-08-01 20:09:00,
2013-08-01 16:14:00,84.0,62.2,29.82,NNW,340,0.0,6.0,48,0.00,,SKC,0.07,VWS V14.01,2013-08-01 20:14:00,
2013-08-01 16:19:00,84.0,64.5,29.81,WNW,303,1.0,6.0,52,0.00,,SKC,0.07,VWS V14.01,2013-08-01 20:19:00,
2013-08-01 16:24:00,82.8,63.9,29.81,NW,307,6.0,12.0,53,0.00,,SKC,0.07,VWS V14.01,2013-08-01 20:24:00,
2013-08-01 16:29:00,81.6,64.9,29.81,NW,309,3.0,5.0,57,0.00,,SKC,0.07,VWS V14.01,2013-08-01 20:29:00,
2013-08-01 16:34:00,80.9,64.2,29.82,NW,307,1.0,4.0,57,0.00,,SKC,0.07,VWS V14.01,2013-08-01 20:34:00,
2013-08-01 16:40:00,81.1,64.4,29.82,WNW,297,0.0,6.0,57,0.00,,SKC,0.07,VWS V14.01,2013-08-01 20:40:00,
2013-08-01 16:46:00,81.8,65.1,29.81,WNW,297,2.0,2.0,57,0.00,,SKC,0.07,VWS V14.01,2013-08-01 20:46:00,
2013-08-01 16:51:00,82.4,64.1,29.81,WNW,297,0.0,4.0,54,0.00,,SKC,0.07,VWS V14.01,2013-08-01 20:51:00,
2013-08-01 16:56:00,82.8,63.4,29.81,WNW,302,3.0,6.0,52,0.00,,SKC,0.07,VWS V14.01,2013-08-01 20:56:00,
2013-08-01 17:01:00,83.0,62.5,29.82,WNW,300,0.0,4.0,50,0.00,,SKC,0.07,VWS V14.01,2013-08-01 21:01:00,
2013-08-01 17:06:00,83.4,63.4,29.82,NW,304,2.0,4.0,51,0.00,,SKC,0.07,VWS V14.01,2013-08-01 21:06:00,
2013-08-01 17:11:00,83.6,62.4,29.82,WNW,301,0.0,4.0,49,0.00,,SKC,0.07,VWS V14.01,2013-08-01 21:11:00,
2013-08-01 17:16:00,83.8,63.8,29.81,WNW,301,0.0,1.0,51,0.00,,SKC,0.07,VWS V14.01,2013-08-01 21:16:00,
2013-08-01 17:21:00,83.8,63.2,29.81,WNW,301,0.0,0.0,50,0.00,,SKC,0.07,VWS V14.01,2013-08-01 21:21:00,
2013-08-01 17:26:00,83.0,66.2,29.81,WNW,301,0.0,0.0,57,0.00,,SKC,0.07,VWS V14.01,2013-08-01 21:26:00,
2013-08-01 17:31:00,81.6,66.4,29.81,WNW,301,0.0,0.0,60,0.00,,SKC,0.07,VWS V14.01,2013-08-01 21:31:00,
2013-08-01 17:36:00,80.7,66.5,29.81,WNW,301,0.0,0.0,62,0.00,,SKC,0.07,VWS V14.01,2013-08-01 21:36:00,
2013-08-01 17:41:00,80.1,65.9,29.81,WNW,301,1.0,4.0,62,0.00,,SKC,0.07,VWS V14.01,2013-08-01 21:41:00,
2013-08-01 17:47:00,79.4,63.8,29.81,WNW,297,2.0,6.0,59,0.00,,SKC,0.07,VWS V14.01,2013-08-01 21:47:00,
2013-08-01 17:52:00,79.0,63.9,29.81,WNW,293,0.0,5.0,60,0.00,,SKC,0.07,VWS V14.01,2013-08-01 21:52:00,
2013-08-01 17:57:00,79.0,64.9,29.81,WNW,293,1.0,3.0,62,0.00,,SKC,0.07,VWS V14.01,2013-08-01 21:57:00,
2013-08-01 18:02:00,79.0,65.8,29.82,WNW,293,0.0,1.0,64,0.00,,SKC,0.07,VWS V14.01,2013-08-01 22:02:00,
2013-08-01 18:07:00,78.6,65.4,29.82,WNW,294,0.0,7.0,64,0.00,,SKC,0.07,VWS V14.01,2013-08-01 22:07:00,
2013-08-01 18:12:00,78.5,64.4,29.82,WNW,297,0.0,4.0,62,0.00,,SKC,0.07,VWS V14.01,2013-08-01 22:12:00,
2013-08-01 18:17:00,78.8,63.8,29.82,WNW,295,0.0,4.0,60,0.00,,SKC,0.07,VWS V14.01,2013-08-01 22:17:00,
2013-08-01 18:22:00,79.0,64.9,29.82,WNW,290,4.0,4.0,62,0.00,,SKC,0.07,VWS V14.01,2013-08-01 22:22:00,
2013-08-01 18:27:00,79.2,64.6,29.82,WNW,292,1.0,3.0,61,0.00,,SKC,0.07,VWS V14.01,2013-08-01 22:27:00,
2013-08-01 18:32:00,79.6,64.0,29.82,NNW,327,0.0,5.0,59,0.00,,SKC,0.07,VWS V14.01,2013-08-01 22:32:00,
2013-08-01 18:37:00,79.9,63.8,29.82,WNW,284,2.0,7.0,58,0.00,,SKC,0.07,VWS V14.01,2013-08-01 22:37:00,
2013-08-01 18:42:00,80.1,64.0,29.82,WNW,290,0.0,3.0,58,0.00,,SKC,0.07,VWS V14.01,2013-08-01 22:42:00,
2013-08-01 18:48:00,80.5,64.4,29.82,WNW,290,0.0,3.0,58,0.00,,SKC,0.07,VWS V14.01,2013-08-01 22:48:00,
2013-08-01 18:53:00,80.7,63.6,29.82,NW,307,1.0,9.0,56,0.00,,SKC,0.07,VWS V14.01,2013-08-01 22:53:00,
2013-08-01 18:58:00,80.5,63.4,29.82,WNW,300,4.0,7.0,56,0.00,,SKC,0.07,VWS V14.01,2013-08-01 22:58:00,
2013-08-01 19:03:00,80.1,63.5,29.83,WNW,293,4.0,7.0,57,0.00,,SKC,0.07,VWS V14.01,2013-08-01 23:03:00,
2013-08-01 19:08:00,79.9,63.8,29.83,WNW,291,2.0,4.0,58,0.00,,SKC,0.07,VWS V14.01,2013-08-01 23:08:00,
2013-08-01 19:13:00,79.8,64.2,29.83,West,278,5.0,5.0,59,0.00,,SKC,0.07,VWS V14.01,2013-08-01 23:13:00,
2013-08-01 19:18:00,79.8,63.7,29.82,West,281,0.0,4.0,58,0.00,,SKC,0.07,VWS V14.01,2013-08-01 23:18:00,
2013-08-01 19:23:00,79.4,63.8,29.82,WNW,297,0.0,4.0,59,0.00,,SKC,0.07,VWS V14.01,2013-08-01 23:23:00,
2013-08-01 19:28:00,79.0,63.9,29.82,WNW,297,0.0,3.0,60,0.00,,SKC,0.07,VWS V14.01,2013-08-01 23:28:00,
2013-08-01 19:33:00,78.8,63.8,29.83,WNW,295,0.0,2.0,60,0.00,,SKC,0.07,VWS V14.01,2013-08-01 23:33:00,
2013-08-01 19:38:00,78.6,63.6,29.83,WNW,295,2.0,4.0,60,0.00,,SKC,0.07,VWS V14.01,2013-08-01 23:38:00,
2013-08-01 19:43:00,78.5,64.0,29.83,WNW,295,0.0,1.0,61,0.00,,SKC,0.07,VWS V14.01,2013-08-01 23:43:00,
2013-08-01 19:48:00,78.3,63.8,29.83,WNW,295,0.0,0.0,61,0.00,,SKC,0.07,VWS V14.01,2013-08-01 23:48:00,
2013-08-01 19:53:00,78.3,64.7,29.83,WNW,295,0.0,1.0,63,0.00,,SKC,0.07,VWS V14.01,2013-08-01 23:53:00,
2013-08-01 19:58:00,77.9,65.6,29.83,WNW,295,0.0,1.0,66,0.00,,SKC,0.07,VWS V14.01,2013-08-01 23:58:00,
2013-08-01 20:03:00,77.2,64.1,29.83,WNW,296,0.0,2.0,64,0.00,,SKC,0.07,VWS V14.01,2013-08-02 00:03:00,
2013-08-01 20:08:00,76.8,65.0,29.83,WNW,296,0.0,0.0,67,0.00,,SKC,0.07,VWS V14.01,2013-08-02 00:08:00,
2013-08-01 20:14:00,76.3,65.4,29.83,WNW,296,0.0,0.0,69,0.00,,SKC,0.07,VWS V14.01,2013-08-02 00:14:00,
2013-08-01 20:19:00,76.3,65.0,29.84,WNW,296,0.0,0.0,68,0.00,,SKC,0.07,VWS V14.01,2013-08-02 00:19:00,
2013-08-01 20:24:00,76.1,64.8,29.84,WNW,296,0.0,0.0,68,0.00,,SKC,0.07,VWS V14.01,2013-08-02 00:24:00,
2013-08-01 20:29:00,75.8,65.3,29.84,WNW,296,0.0,0.0,70,0.00,,SKC,0.07,VWS V14.01,2013-08-02 00:29:00,
2013-08-01 20:34:00,74.9,65.3,29.84,WNW,296,0.0,0.0,72,0.00,,SKC,0.07,VWS V14.01,2013-08-02 00:34:00,
2013-08-01 20:39:00,74.4,64.8,29.84,WNW,296,0.0,0.0,72,0.00,,SKC,0.07,VWS V14.01,2013-08-02 00:39:00,
2013-08-01 20:44:00,73.9,65.5,29.84,WNW,296,1.0,1.0,75,0.00,,SKC,0.07,VWS V14.01,2013-08-02 00:44:00,
2013-08-01 20:49:00,73.5,64.3,29.85,WNW,295,2.0,5.0,73,0.00,,SKC,0.07,VWS V14.01,2013-08-02 00:49:00,
2013-08-01 20:55:00,73.3,65.7,29.85,WNW,295,0.0,1.0,77,0.00,,SKC,0.07,VWS V14.01,2013-08-02 00:55:00,
2013-08-01 21:00:00,72.8,66.3,29.85,WNW,295,0.0,0.0,80,0.00,,SKC,0.07,VWS V14.01,2013-08-02 01:00:00,
2013-08-01 21:05:00,72.0,65.9,29.86,WNW,295,0.0,4.0,81,0.00,,SKC,0.07,VWS V14.01,2013-08-02 01:05:00,
2013-08-01 21:10:00,71.5,65.0,29.86,WNW,295,4.0,5.0,80,0.00,,SKC,0.07,VWS V14.01,2013-08-02 01:10:00,
2013-08-01 21:15:00,71.3,64.8,29.86,WNW,297,2.0,5.0,80,0.00,,SKC,0.07,VWS V14.01,2013-08-02 01:15:00,
2013-08-01 21:20:00,71.5,65.4,29.86,WNW,294,0.0,5.0,81,0.00,,SKC,0.07,VWS V14.01,2013-08-02 01:20:00,
2013-08-01 21:25:00,71.6,65.5,29.86,WNW,294,0.0,0.0,81,0.00,,SKC,0.07,VWS V14.01,2013-08-02 01:25:00,
2013-08-01 21:30:00,71.8,64.9,29.86,WNW,294,0.0,0.0,79,0.00,,SKC,0.07,VWS V14.01,2013-08-02 01:30:00,
2013-08-01 21:35:00,71.8,65.3,29.86,WNW,294,0.0,0.0,80,0.00,,SKC,0.07,VWS V14.01,2013-08-02 01:35:00,
2013-08-01 21:40:00,71.8,66.0,29.86,WNW,294,0.0,0.0,82,0.00,,SKC,0.07,VWS V14.01,2013-08-02 01:40:00,
2013-08-01 21:46:00,71.5,65.4,29.86,WNW,294,0.0,0.0,81,0.00,,SKC,0.07,VWS V14.01,2013-08-02 01:46:00,
2013-08-01 21:51:00,71.1,65.3,29.86,WNW,294,0.0,3.0,82,0.00,,SKC,0.07,VWS V14.01,2013-08-02 01:51:00,
2013-08-01 21:56:00,70.8,65.0,29.86,WNW,294,0.0,0.0,82,0.00,,SKC,0.07,VWS V14.01,2013-08-02 01:56:00,
2013-08-01 22:01:00,70.6,64.8,29.87,WNW,294,0.0,0.0,82,0.00,,SKC,0.07,VWS V14.01,2013-08-02 02:01:00,
2013-08-01 22:06:00,70.6,65.2,29.87,WNW,294,0.0,0.0,83,0.00,,SKC,0.07,VWS V14.01,2013-08-02 02:06:00,
2013-08-01 22:11:00,70.4,65.0,29.87,WNW,294,0.0,0.0,83,0.00,,SKC,0.07,VWS V14.01,2013-08-02 02:11:00,
2013-08-01 22:17:00,70.4,64.7,29.87,WNW,294,0.0,0.0,82,0.00,,SKC,0.07,VWS V14.01,2013-08-02 02:17:00,
2013-08-01 22:22:00,70.8,64.7,29.87,WNW,294,0.0,0.0,81,0.00,,SKC,0.07,VWS V14.01,2013-08-02 02:22:00,
2013-08-01 22:27:00,71.1,65.3,29.87,WNW,294,0.0,0.0,82,0.00,,SKC,0.07,VWS V14.01,2013-08-02 02:27:00,
2013-08-01 22:32:00,70.8,65.0,29.87,WNW,294,0.0,0.0,82,0.00,,SKC,0.07,VWS V14.01,2013-08-02 02:32:00,
2013-08-01 22:37:00,70.6,65.2,29.87,WNW,294,0.0,0.0,83,0.00,,SKC,0.07,VWS V14.01,2013-08-02 02:37:00,
2013-08-01 22:42:00,70.3,64.9,29.87,WNW,294,0.0,0.0,83,0.00,,SKC,0.07,VWS V14.01,2013-08-02 02:42:00,
2013-08-01 22:47:00,69.9,64.8,29.87,WNW,294,0.0,0.0,84,0.00,,SKC,0.07,VWS V14.01,2013-08-02 02:47:00,
2013-08-01 22:52:00,69.6,64.9,29.87,WNW,294,4.0,4.0,85,0.00,,SKC,0.07,VWS V14.01,2013-08-02 02:52:00,
2013-08-01 22:57:00,69.3,64.6,29.87,WNW,290,0.0,3.0,85,0.00,,SKC,0.07,VWS V14.01,2013-08-02 02:57:00,
2013-08-01 23:02:00,69.4,64.0,29.87,WNW,290,0.0,0.0,83,0.00,,SKC,0.07,VWS V14.01,2013-08-02 03:02:00,
2013-08-01 23:07:00,69.8,64.1,29.87,WNW,290,0.0,0.0,82,0.00,,SKC,0.07,VWS V14.01,2013-08-02 03:07:00,
2013-08-01 23:12:00,69.8,64.4,29.87,WNW,290,0.0,0.0,83,0.00,,SKC,0.07,VWS V14.01,2013-08-02 03:12:00,
2013-08-01 23:17:00,69.8,65.1,29.88,WNW,290,0.0,0.0,85,0.00,,SKC,0.07,VWS V14.01,2013-08-02 03:17:00,
2013-08-01 23:22:00,69.6,65.2,29.88,WNW,290,0.0,0.0,86,0.00,,SKC,0.07,VWS V14.01,2013-08-02 03:22:00,
2013-08-01 23:28:00,69.3,64.9,29.88,WNW,290,0.0,0.0,86,0.00,,SKC,0.07,VWS V14.01,2013-08-02 03:28:00,
2013-08-01 23:33:00,68.6,64.9,29.88,WNW,290,0.0,0.0,88,0.00,,SKC,0.07,VWS V14.01,2013-08-02 03:33:00,
2013-08-01 23:38:00,68.3,64.6,29.88,WNW,290,0.0,0.0,88,0.00,,SKC,0.07,VWS V14.01,2013-08-02 03:38:00,
2013-08-01 23:43:00,68.1,64.4,29.88,WNW,290,0.0,0.0,88,0.00,,SKC,0.07,VWS V14.01,2013-08-02 03:43:00,
2013-08-01 23:48:00,67.9,64.2,29.88,WNW,290,0.0,0.0,88,0.00,,SKC,0.07,VWS V14.01,2013-08-02 03:48:00,
2013-08-01 23:53:00,67.9,64.2,29.88,WNW,290,0.0,0.0,88,0.00,,SKC,0.07,VWS V14.01,2013-08-02 03:53:00,
2013-08-01 23:58:00,67.8,64.1,29.88,WNW,290,0.0,0.0,88,0.00,,SKC,0.07,VWS V14.01,2013-08-02 03:58:00,